This is the latest recevied weather packets stored in our database for station/object N0EDB-13. If no packets are shown the sender has not sent any weather packets the latest 10 day(s).
| Time | Temp. | Humidity | Pressure | Rain* | Wind** | Luminosity | Snow |
|---|---|---|---|---|---|---|---|
| 1777648172 | 8.89° C | 52% | 1513.7 hPa | 0 mm | - | 68 W/m² | - |
| 1777647872 | 8.33° C | 50% | 1514.8 hPa | 0 mm | - | 67 W/m² | - |
| 1777647572 | 8.33° C | 52% | 1515.5 hPa | 0 mm | - | 67 W/m² | - |
| 1777647271 | 7.78° C | 54% | 1516.7 hPa | 0 mm | - | 66 W/m² | - |
| 1777646970 | 7.78° C | 56% | 1517.4 hPa | 0 mm | - | 64 W/m² | - |
| 1777646670 | 7.22° C | 59% | 1518.5 hPa | 0 mm | - | 64 W/m² | - |
| 1777646370 | 6.67° C | 57% | 1519.4 hPa | 0 mm | - | 63 W/m² | - |
| 1777646069 | 6.11° C | 60% | 1520.8 hPa | 0 mm | - | 62 W/m² | - |
| 1777645768 | 6.11° C | 63% | 1522.2 hPa | 0 mm | - | 61 W/m² | - |
| 1777645468 | 5.56° C | 63% | 1523.2 hPa | 0 mm | - | 61 W/m² | - |
| 1777645167 | 5.56° C | 64% | 1524.1 hPa | 0 mm | - | 61 W/m² | - |
| 1777644867 | 5° C | 65% | 1525.3 hPa | 0 mm | - | 59 W/m² | - |
| 1777644566 | 4.44° C | 73% | 1526.6 hPa | 0 mm | - | 59 W/m² | - |
| 1777644265 | 3.89° C | 75% | 1527.9 hPa | 0 mm | - | 59 W/m² | - |
| 1777643965 | 3.33° C | 77% | 1529.4 hPa | 0 mm | - | 57 W/m² | - |
| 1777643665 | 3.33° C | 79% | 1530.7 hPa | 0 mm | - | 56 W/m² | - |
| 1777643364 | 2.78° C | 80% | 1531.4 hPa | 0 mm | - | 56 W/m² | - |
| 1777643063 | 2.78° C | 81% | 1532.3 hPa | 0 mm | - | 54 W/m² | - |
| 1777642763 | 2.22° C | 83% | 1533.1 hPa | 0 mm | - | 54 W/m² | - |
| 1777642462 | 2.22° C | 83% | 1533.7 hPa | 0 mm | - | 53 W/m² | - |
| 1777642162 | 2.22° C | 83% | 1534.3 hPa | 0 mm | - | 51 W/m² | - |
| 1777641861 | 1.67° C | 84% | 1534.7 hPa | 0 mm | - | 51 W/m² | - |
| 1777641561 | 1.67° C | 84% | 1534.9 hPa | 0 mm | - | 49 W/m² | - |
| 1777641260 | 1.67° C | 84% | 1535.2 hPa | 0 mm | - | 48 W/m² | - |
| 1777640960 | 1.67° C | 84% | 1535.7 hPa | 0 mm | - | 111 W/m² | - |
* Rain latest hour (hover to see other rain measurements)
** Current wind speed in m/s (hover to see current wind gust speed)